| time (UTC) | temp C | wind direction | speed KPH | gust KPH | rain 1hr cm | rain 24hr cm | rain mn cm | humidity % | barometer mb |
| 20260831233037 | 26 | 327 | 6.4 | 12.9 | 0.00 | 0.00 | 0.00 | 49 | 1008.5 |
| 20260831231540 | 27 | 329 | 4.8 | 14.5 | 0.00 | 0.00 | 0.00 | 48 | 1008.8 |
| 20260831230038 | 27 | 330 | 4.8 | 12.9 | 0.00 | 0.00 | 0.00 | 51 | 1009.0 |
| 20260831224538 | 26 | 331 | 4.8 | 9.7 | 0.00 | 0.00 | 0.00 | 49 | 1009.2 |
| 20260831223042 | 26 | 331 | 6.4 | 14.5 | 0.00 | 0.00 | 0.00 | 46 | 1009.5 |
| 20260831221543 | 26 | 331 | 6.4 | 12.9 | 0.00 | 0.00 | 0.00 | 47 | 1009.7 |
| 20260831220036 | 26 | 332 | 6.4 | 14.5 | 0.00 | 0.00 | 0.00 | 45 | 1009.9 |
| 20260831214541 | 27 | 334 | 6.4 | 14.5 | 0.00 | 0.00 | 0.00 | 42 | 1010.1 |
| 20260831213044 | 27 | 331 | 8.0 | 16.1 | 0.00 | 0.00 | 0.00 | 39 | 1010.6 |
| 20260831211543 | 27 | 328 | 8.0 | 17.7 | 0.00 | 0.00 | 0.00 | 38 | 1010.6 |
| 20260831210040 | 26 | 336 | 8.0 | 19.3 | 0.00 | 0.00 | 0.00 | 39 | 1010.9 |
| 20260831204539 | 26 | 338 | 8.0 | 16.1 | 0.00 | 0.00 | 0.00 | 40 | 1011.2 |
| 20260831203041 | 26 | 333 | 6.4 | 17.7 | 0.00 | 0.00 | 0.00 | 41 | 1011.4 |
| 20260831201552 | 25 | 342 | 9.7 | 16.1 | 0.00 | 0.00 | 0.00 | 42 | 1011.8 |
| 20260831200043 | 25 | 349 | 8.0 | 16.1 | 0.00 | 0.00 | 0.00 | 42 | 1012.1 |
| 20260831194626 | 24 | 348 | 6.4 | 14.5 | 0.00 | 0.00 | 0.00 | 45 | 1012.3 |
| 20260831193036 | 24 | 351 | 6.4 | 14.5 | 0.00 | 0.00 | 0.00 | 46 | 1012.6 |
| 20260831191538 | 23 | 5 | 6.4 | 16.1 | 0.00 | 0.00 | 0.00 | 47 | 1012.9 |
| 20260831190042 | 22 | 5 | 6.4 | 16.1 | 0.00 | 0.00 | 0.00 | 49 | 1013.3 |
| 20260831184543 | 22 | 11 | 6.4 | 14.5 | 0.00 | 0.00 | 0.00 | 50 | 1013.5 |
| 20260831183043 | 21 | 14 | 8.0 | 16.1 | 0.00 | 0.00 | 0.00 | 51 | 1013.8 |
| 20260831181545 | 21 | 15 | 8.0 | 20.9 | 0.00 | 0.00 | 0.00 | 52 | 1014.0 |
| 20260831180036 | 21 | 18 | 9.7 | 19.3 | 0.00 | 0.00 | 0.00 | 53 | 1014.0 |
| 20260831174543 | 20 | 9 | 8.0 | 17.7 | 0.00 | 0.00 | 0.00 | 52 | 1014.3 |
| 20260831173040 | 20 | 352 | 9.7 | 17.7 | 0.00 | 0.00 | 0.00 | 56 | 1014.4 |
| 20260831171544 | 19 | 352 | 8.0 | 16.1 | 0.00 | 0.00 | 0.00 | 58 | 1014.5 |
| 20260831170040 | 18 | 352 | 8.0 | 16.1 | 0.00 | 0.00 | 0.00 | 59 | 1014.6 |
| 20260831164535 | 18 | 348 | 9.7 | 19.3 | 0.00 | 0.00 | 0.00 | 55 | 1014.6 |
| 20260831163040 | 17 | 338 | 8.0 | 16.1 | 0.00 | 0.00 | 0.00 | 57 | 1014.9 |
| 20260831161541 | 16 | 333 | 8.0 | 17.7 | 0.00 | 0.00 | 0.00 | 58 | 1015.0 |
| 20260831160043 | 16 | 320 | 8.0 | 14.5 | 0.00 | 0.00 | 0.00 | 57 | 1015.3 |
| 20260831154604 | 15 | 319 | 4.8 | 12.9 | 0.00 | 0.00 | 0.00 | 59 | 1015.3 |
| 20260831153042 | 14 | 319 | 6.4 | 12.9 | 0.00 | 0.00 | 0.00 | 61 | 1015.3 |
| 20260831151536 | 13 | 319 | 6.4 | 12.9 | 0.00 | 0.00 | 0.00 | 65 | 1015.3 |
| 20260831150041 | 13 | 319 | 8.0 | 14.5 | 0.00 | 0.00 | 0.00 | 63 | 1015.2 |
| 20260831144546 | 12 | 306 | 4.8 | 11.3 | 0.00 | 0.00 | 0.00 | 65 | 1015.1 |
| 20260831143036 | 12 | 306 | 9.7 | 16.1 | 0.00 | 0.00 | 0.00 | 66 | 1014.7 |
| 20260831141543 | 11 | 256 | 6.4 | 14.5 | 0.00 | 0.00 | 0.00 | 69 | 1014.6 |
| 20260831140039 | 10 | 250 | 4.8 | 11.3 | 0.00 | 0.00 | 0.00 | 70 | 1014.8 |
| 20260831134542 | 10 | 248 | 3.2 | 8.0 | 0.00 | 0.00 | 0.00 | 71 | 1014.6 |
| 20260831133049 | 10 | 248 | 4.8 | 11.3 | 0.00 | 0.00 | 0.00 | 73 | 1014.6 |
| 20260831131536 | 9 | 248 | 3.2 | 8.0 | 0.00 | 0.00 | 0.00 | 73 | 1014.7 |
| 20260831130039 | 10 | 248 | 3.2 | 6.4 | 0.00 | 0.00 | 0.00 | 73 | 1014.5 |
| 20260831124540 | 10 | 248 | 3.2 | 8.0 | 0.00 | 0.00 | 0.00 | 73 | 1014.5 |
| 20260831123042 | 10 | 248 | 4.8 | 12.9 | 0.00 | 0.00 | 0.00 | 74 | 1014.3 |
| 20260831121545 | 10 | 211 | 4.8 | 9.7 | 0.00 | 0.00 | 0.00 | 74 | 1014.4 |
| 20260831120042 | 10 | 207 | 3.2 | 6.4 | 0.00 | 0.00 | 0.00 | 74 | 1014.3 |
| 20260831114550 | 10 | 207 | 3.2 | 6.4 | 0.00 | 0.00 | 0.00 | 74 | 1014.2 |
| 20260831113040 | 10 | 206 | 3.2 | 6.4 | 0.00 | 0.00 | 0.00 | 74 | 1014.4 |
| 20260831111544 | 10 | 206 | 1.6 | 6.4 | 0.00 | 0.00 | 0.00 | 74 | 1014.5 |
| 20260831110040 | 11 | 206 | 3.2 | 6.4 | 0.00 | 0.00 | 0.00 | 73 | 1014.4 |
| 20260831104543 | 11 | 206 | 3.2 | 6.4 | 0.00 | 0.00 | 0.00 | 72 | 1014.3 |
| 20260831103040 | 12 | 205 | 3.2 | 8.0 | 0.00 | 0.00 | 0.00 | 70 | 1014.3 |
| 20260831101540 | 13 | 205 | 3.2 | 6.4 | 0.00 | 0.00 | 0.00 | 66 | 1014.4 |
| 20260831100100 | 13 | 205 | 3.2 | 6.4 | 0.00 | 0.00 | 0.00 | 65 | 1014.4 |
| 20260831094536 | 13 | 205 | 3.2 | 6.4 | 0.00 | 0.00 | 0.00 | 65 | 1014.5 |
| 20260831093041 | 13 | 205 | 3.2 | 6.4 | 0.00 | 0.00 | 0.00 | 64 | 1014.7 |
| 20260831091546 | 13 | 205 | 3.2 | 4.8 | 0.00 | 0.00 | 0.00 | 63 | 1014.8 |
| 20260831090037 | 13 | 205 | 3.2 | 6.4 | 0.00 | 0.00 | 0.00 | 65 | 1014.9 |
| 20260831084556 | 13 | 205 | 3.2 | 4.8 | 0.00 | 0.00 | 0.00 | 68 | 1015.0 |
| 20260831083042 | 13 | 205 | 0.0 | 8.0 | 0.00 | 0.00 | 0.00 | 68 | 1015.0 |
| 20260831081537 | 13 | 202 | 3.2 | 6.4 | 0.00 | 0.00 | 0.00 | 67 | 1014.8 |
| 20260831080038 | 13 | 202 | 3.2 | 6.4 | 0.00 | 0.00 | 0.00 | 67 | 1014.8 |
| 20260831074549 | 13 | 0 | 0.0 | 0.0 | 0.00 | 0.00 | 0.00 | 67 | 1014.8 |
| 20260831073043 | 15 | 0 | 0.0 | 6.4 | 0.00 | 0.00 | 0.00 | 63 | 1014.9 |
| 20260831071536 | 15 | 202 | 3.2 | 6.4 | 0.00 | 0.00 | 0.00 | 61 | 1014.9 |
| 20260831070040 | 15 | 202 | 3.2 | 6.4 | 0.00 | 0.00 | 0.00 | 61 | 1014.9 |
| 20260831064539 | 15 | 202 | 3.2 | 6.4 | 0.00 | 0.00 | 0.00 | 61 | 1014.9 |
| 20260831063039 | 16 | 202 | 3.2 | 6.4 | 0.00 | 0.00 | 0.00 | 60 | 1014.9 |
| 20260831061540 | 16 | 202 | 3.2 | 6.4 | 0.00 | 0.00 | 0.00 | 59 | 1014.9 |
| 20260831060058 | 16 | 202 | 3.2 | 6.4 | 0.00 | 0.00 | 0.00 | 58 | 1015.0 |
| 20260831054537 | 16 | 202 | 1.6 | 4.8 | 0.00 | 0.00 | 0.00 | 58 | 1015.0 |
| 20260831053041 | 17 | 202 | 3.2 | 6.4 | 0.00 | 0.00 | 0.00 | 56 | 1015.0 |
| 20260831051543 | 17 | 202 | 1.6 | 4.8 | 0.00 | 0.00 | 0.00 | 55 | 1015.0 |
| 20260831050057 | 17 | 202 | 3.2 | 4.8 | 0.00 | 0.00 | 0.00 | 56 | 1015.0 |
| 20260831044543 | 17 | 202 | 3.2 | 4.8 | 0.00 | 0.00 | 0.00 | 57 | 1015.1 |
| 20260831043044 | 16 | 202 | 1.6 | 4.8 | 0.00 | 0.00 | 0.00 | 59 | 1015.1 |
| 20260831041551 | 16 | 202 | 1.6 | 4.8 | 0.00 | 0.00 | 0.00 | 60 | 1015.0 |
| 20260831040037 | 16 | 202 | 3.2 | 4.8 | 0.00 | 0.00 | 0.00 | 60 | 1015.1 |
| 20260831034540 | 16 | 202 | 1.6 | 4.8 | 0.00 | 0.00 | 0.00 | 62 | 1015.2 |
| 20260831033042 | 17 | 0 | 0.0 | 4.8 | 0.00 | 0.00 | 0.00 | 61 | 1014.9 |
| 20260831031543 | 17 | 202 | 1.6 | 4.8 | 0.00 | 0.00 | 0.00 | 60 | 1014.8 |
| 20260831030040 | 18 | 202 | 0.0 | 3.2 | 0.00 | 0.00 | 0.00 | 59 | 1014.6 |
| 20260831024541 | 18 | 202 | 0.0 | 3.2 | 0.00 | 0.00 | 0.00 | 56 | 1014.5 |
| 20260831023041 | 20 | 0 | 0.0 | 4.8 | 0.00 | 0.00 | 0.00 | 54 | 1014.6 |
| 20260831021544 | 21 | 202 | 1.6 | 4.8 | 0.00 | 0.00 | 0.00 | 51 | 1014.8 |
| 20260831020039 | 21 | 202 | 3.2 | 4.8 | 0.00 | 0.00 | 0.00 | 49 | 1014.7 |
| 20260831014540 | 22 | 202 | 3.2 | 8.0 | 0.00 | 0.00 | 0.00 | 47 | 1014.6 |
| 20260831013052 | 23 | 202 | 4.8 | 8.0 | 0.00 | 0.00 | 0.00 | 46 | 1014.5 |
| 20260831011537 | 23 | 202 | 3.2 | 8.0 | 0.00 | 0.00 | 0.00 | 40 | 1014.8 |
| 20260831010036 | 23 | 202 | 3.2 | 8.0 | 0.00 | 0.00 | 0.00 | 36 | 1015.0 |
| 20260831004544 | 23 | 202 | 1.6 | 6.4 | 0.00 | 0.00 | 0.00 | 38 | 1014.8 |
| 20260831003048 | 23 | 202 | 3.2 | 9.7 | 0.00 | 0.00 | 0.00 | 37 | 1015.0 |
| 20260831001538 | 23 | 209 | 1.6 | 9.7 | 0.00 | 0.00 | 0.00 | 37 | 1015.1 |
| 20260831000035 | 24 | 0 | 0.0 | 6.4 | 0.00 | 0.00 | 0.00 | 36 | 1015.2 |
| 20260830234550 | 24 | 0 | 1.6 | 8.0 | 0.00 | 0.00 | 0.00 | 37 | 1015.3 |